Weather History for Havre-Saint-Pierre, QC

Change the Weather History Date:

Friday, March 23, 2012

  Actual Average Record
Temperature  
Mean Temperature 30 °F -  
Max Temperature 39 °F 34 °F 42 °F (2006)
Min Temperature 21 °F 20 °F 0 °F (1997)
Degree Days  
Heating Degree Days 35    
Moisture  
Dew Point 12 °F    
Average Humidity 47    
Maximum Humidity 60    
Minimum Humidity 37    
Precipitation  
Precipitation 0.00 in - - ()
Sea Level Pressure  
Sea Level Pressure 29.76 in    
Wind  
Wind Speed 14 mph ()    
Max Wind Speed 23 mph    
Max Gust Speed 32 mph    
Visibility 9.0 miles    
Events Rain    
Averages and records for this station are not official NWS values.
T = Trace of Precipitation, MM = Missing Value Source: Averaged Metar Reports

Daily Weather History Graph

Daily Weather History Graph

Search for Another Location

Airport:

Trip Planner

Search our weather history database for the weather conditions in past years. The results will help you decide how hot, cold, wet, or windy it might be!

Date:

Astronomy

Mar. 23, 2012 Rise Set
Actual Time 6:09 AM EDT 6:33 PM EDT
Civil Twilight 5:37 AM EDT 7:05 PM EDT
Nautical Twilight 4:58 AM EDT 7:44 PM EDT
Astronomical Twilight 4:18 AM EDT 8:24 PM EDT
Moon 6:05 AM EDT (3/23) 8:05 PM EDT (3/23)
Length of Visible Light 13h 28m
Length of Day
12h 23m
New Moon, 1% of the Moon is Illuminated
Mar 23
New Moon
Mar 30
First Quarter
Apr 6
Full
Apr 13
Last Quarter
Apr 21
New

Hourly Weather History & Observations

Time (EDT) Temp. Windchill Dew Point Humidity Pressure Visibility Wind Dir Wind Speed Gust Speed Precip Events Conditions
12:00 AM 39.2 °F 30.8 °F 19.4 °F 45% 29.68 in 9.0 mi WNW 15.0 mph 27.6 mph N/A   Clear
1:00 AM 39.2 °F 29.6 °F 21.2 °F 49% 29.68 in 9.0 mi NW 19.6 mph 29.9 mph N/A   Mostly Cloudy
2:00 AM 37.4 °F 27.8 °F 17.6 °F 45% 29.68 in 9.0 mi NW 17.3 mph 28.8 mph N/A   Partly Cloudy
3:00 AM 33.8 °F 28.6 °F 17.6 °F 52% 29.68 in 9.0 mi WNW 5.8 mph - N/A   Clear
4:00 AM 32.0 °F 23.6 °F 17.6 °F 55% 29.67 in 9.0 mi West 10.4 mph - N/A   Mostly Cloudy
5:00 AM 33.8 °F 27.0 °F 19.4 °F 56% 29.67 in 9.0 mi NW 8.1 mph - N/A   Overcast
6:00 AM 33.8 °F 25.8 °F 17.6 °F 52% 29.67 in 9.0 mi NW 10.4 mph 19.6 mph N/A   Partly Cloudy
7:00 AM 33.8 °F 27.7 °F 15.8 °F 48% 29.70 in 9.0 mi North 6.9 mph - N/A   Overcast
7:32 AM 33.8 °F 22.8 °F 14.0 °F 44% 29.70 in - NNW 18.4 mph 32.2 mph N/A   Unknown
8:00 AM 33.8 °F 23.2 °F 14.0 °F 44% 29.71 in 9.0 mi NW 17.3 mph 32.2 mph N/A   Overcast
8:43 AM 32.0 °F 21.6 °F 19.4 °F 60% 29.72 in 9.0 mi North 15.0 mph 20.7 mph N/A Rain Light Rain
8:52 AM 32.0 °F 22.1 °F 15.8 °F 51% 29.72 in 9.0 mi NNW 13.8 mph 19.6 mph N/A   Overcast
9:00 AM 32.0 °F 19.8 °F 12.2 °F 44% 29.72 in 9.0 mi NNW 20.7 mph 31.1 mph N/A   Overcast
10:00 AM 32.0 °F 20.8 °F 15.8 °F 51% 29.73 in 9.0 mi North 17.3 mph 25.3 mph N/A   Overcast
11:00 AM 30.2 °F 17.8 °F 12.2 °F 47% 29.76 in 9.0 mi NNW 19.6 mph 27.6 mph N/A   Overcast
12:00 PM 30.2 °F 17.8 °F 8.6 °F 40% 29.77 in 9.0 mi North 19.6 mph 28.8 mph N/A   Mostly Cloudy
1:00 PM 30.2 °F 16.8 °F 6.8 °F 37% 29.77 in 9.0 mi NNW 23.0 mph 29.9 mph N/A   Partly Cloudy
2:00 PM 28.4 °F 15.1 °F 6.8 °F 40% 29.78 in 9.0 mi NNW 20.7 mph 31.1 mph N/A   Scattered Clouds
3:00 PM 26.6 °F 12.4 °F 5.0 °F 40% 29.82 in 9.0 mi NNW 21.9 mph 32.2 mph N/A   Unknown
4:00 PM 26.6 °F 13.1 °F 5.0 °F 40% 29.83 in 9.0 mi North 19.6 mph 26.5 mph N/A   Partly Cloudy
5:00 PM 26.6 °F 12.7 °F 5.0 °F 40% 29.84 in 9.0 mi North 20.7 mph 27.6 mph N/A   Partly Cloudy
6:00 PM 24.8 °F 11.5 °F 5.0 °F 43% 29.86 in 9.0 mi North 17.3 mph 25.3 mph N/A   Clear
7:00 PM 23.0 °F 11.7 °F 6.8 °F 50% 29.89 in 9.0 mi North 11.5 mph 20.7 mph N/A   Clear
8:00 PM 23.0 °F 9.2 °F 6.8 °F 50% 29.92 in 9.0 mi NNW 17.3 mph 25.3 mph N/A   Clear
9:00 PM 21.2 °F 11.7 °F 6.8 °F 54% 29.93 in 9.0 mi NW 8.1 mph - N/A   Clear
11:00 PM 23.0 °F 11.7 °F 8.6 °F 54% 29.91 in 9.0 mi NNW 11.5 mph 17.3 mph N/A   Mostly Cloudy